Zurück zum Katalog

STARLINK-36048

AktivKommunikationVLEO
NORAD 66603·PAYLOAD·🇺🇸 United States

Gestartet Nov 22, 2025 von Cape Canaveral Space Force Station

Loading…

Nächste Überflüge (nächste 24 Stunden)

TLE

AktuellSource: CelesTrak SupGP

Epoche: Sep 14, 2026, 15:10 UTC

1 66603C 25270R   26257.63243056 -.00040205  00000+0 -14564-2 0  2579
2 66603  43.0008  68.8835 0001470 266.5273 144.2865 15.27593073    12

Verfolge STARLINK-36048 in Echtzeit mit AllMySat

Download on the App Store